TimeMST,TemperatureF,Dew PointF,Humidity,Sea Level PressureIn,VisibilityMPH,Wind Direction,Wind SpeedMPH,Gust SpeedMPH,PrecipitationIn,Events,Conditions,WindDirDegrees,DateUTC
12:53 AM,28.0,21.0,75,30.19,10.0,Calm,Calm,-,N/A,,Clear,0,2012-11-06 07:53:00
1:53 AM,28.9,21.9,75,30.21,10.0,NNE,8.1,-,N/A,,Clear,30,2012-11-06 08:53:00
2:53 AM,28.9,21.9,75,30.20,10.0,NNE,10.4,-,N/A,,Clear,20,2012-11-06 09:53:00
3:53 AM,28.9,21.0,72,30.21,10.0,NE,9.2,-,N/A,,Clear,50,2012-11-06 10:53:00
4:53 AM,28.0,21.0,75,30.23,10.0,NE,8.1,-,N/A,,Clear,40,2012-11-06 11:53:00
5:53 AM,27.0,19.9,75,30.27,10.0,North,6.9,-,N/A,,Clear,10,2012-11-06 12:53:00
6:53 AM,26.1,19.9,78,30.32,10.0,NE,10.4,-,N/A,,Clear,50,2012-11-06 13:53:00
7:53 AM,30.0,21.9,72,30.35,10.0,Calm,Calm,-,N/A,,Clear,0,2012-11-06 14:53:00
8:53 AM,39.9,21.0,47,30.27,10.0,NNE,5.8,-,N/A,,Clear,30,2012-11-06 15:53:00
9:53 AM,44.1,18.0,35,30.24,10.0,NNW,9.2,-,N/A,,Clear,340,2012-11-06 16:53:00
10:53 AM,46.9,16.0,29,30.23,10.0,North,11.5,18.4,N/A,,Clear,350,2012-11-06 17:53:00
11:53 AM,50.0,14.0,24,30.18,10.0,WNW,12.7,16.1,N/A,,Clear,290,2012-11-06 18:53:00
12:53 PM,50.0,14.0,24,30.15,10.0,WNW,9.2,17.3,N/A,,Clear,290,2012-11-06 19:53:00
1:53 PM,51.1,14.0,23,30.12,10.0,West,9.2,-,N/A,,Clear,280,2012-11-06 20:53:00
2:53 PM,50.0,15.1,25,30.12,10.0,West,11.5,20.7,N/A,,Clear,270,2012-11-06 21:53:00
3:53 PM,50.0,16.0,26,30.14,10.0,WNW,10.4,-,N/A,,Clear,290,2012-11-06 22:53:00
4:53 PM,44.1,16.0,32,30.20,10.0,WNW,5.8,-,N/A,,Clear,290,2012-11-06 23:53:00
5:53 PM,36.0,15.1,43,30.27,10.0,NNE,5.8,-,N/A,,Clear,30,2012-11-07 00:53:00
6:53 PM,33.1,14.0,46,30.31,10.0,ENE,5.8,-,N/A,,Clear,60,2012-11-07 01:53:00
7:53 PM,30.0,15.1,54,30.31,10.0,NNE,5.8,-,N/A,,Clear,20,2012-11-07 02:53:00
8:53 PM,28.0,14.0,56,30.25,10.0,ENE,9.2,-,N/A,,Clear,60,2012-11-07 03:53:00
9:53 PM,30.0,14.0,51,30.20,10.0,Calm,Calm,-,N/A,,Clear,0,2012-11-07 04:53:00
10:53 PM,26.1,14.0,60,30.19,10.0,Calm,Calm,-,N/A,,Clear,0,2012-11-07 05:53:00
11:53 PM,28.0,15.1,58,30.15,10.0,NE,9.2,-,N/A,,Clear,40,2012-11-07 06:53:00